Weather Roundup
Issued by NWS Chicago, IL

Home | Current Version | Previous Version | Text Only | Print | Product List | Glossary On
Versions: 1 2 3 4 5 6 7 8 9 10 11 12 13 14 15 16 17 18 19 20 21 22 23 24 25 26 27 28 29 30 31 32 33 34 35 36 37 38 39 40 41 42 43 44 45 46 47 48 49 50
000
NZUS59 KLOT 251509
HRRLOT

CHICAGO AREA WEATHER ROUNDUP
NATIONAL WEATHER SERVICE CHICAGO/ROMEOVILLE IL
1000 AM CDT THU MAY 25 2017

NOTE: "FAIR" INDICATES FEW OR NO CLOUDS BELOW 12,000 FEET WITH NO
SIGNIFICANT WEATHER AND/OR OBSTRUCTIONS TO VISIBILITY.

* THESE STATIONS ARE NOT UNDER NWS QUALITY CONTROL. THEY ALSO MAY NOT
  REPORT WEATHER SUCH AS PRECIPITATION OR FOG.

ILZ005-006-012>014-019>023-251600-
NORTHEAST ILLINOIS

CITY           SKY/WX    TMP DP  RH WIND       PRES   REMARKS
OHARE          CLOUDY    59  51  75 N12G21    29.62R
MIDWAY         CLOUDY    58  52  80 N14       29.61S
AURORA         CLOUDY    58  53  84 N15       29.65R
LANSING*       DRIZZLE   54  54 100 N10       29.62R
JOLIET*        CLOUDY    61  55  81 N10G16    29.63S
WAUKEGAN       CLOUDY    58  52  80 N10G16    29.62S
DUPAGE AIRPORT CLOUDY    59  54  83 N13       29.62S
WHEELING       CLOUDY    58  53  84 N12       29.63S
KANKAKEE*      CLOUDY    60  53  79 N12G17    29.62S
MORRIS*        CLOUDY    57  53  84 N5        29.63R
LEWIS AIRPORT* CLOUDY    59  56  89 N13G18    29.63R
NORTHERLY ISL    N/A     55  50  83 N15         N/A
$$

WIZ051-052-058>065-066-070>072-251600-
SOUTHEAST WISCONSIN

CITY           SKY/WX    TMP DP  RH WIND       PRES   REMARKS
MILWAUKEE      PTSUNNY   62  53  72 N10       29.64S
KENOSHA*       CLOUDY    58  52  80 N8        29.63S
RACINE*        PTSUNNY   60  51  72 N20G28    29.64S
WAUKESHA       CLOUDY    57  52  82 N12       29.65F
WEST BEND      PTSUNNY   59  54  82 N12       29.65S
$$

INZ001>003-010>013-019-020-251600-
NORTHWEST INDIANA

CITY           SKY/WX    TMP DP  RH WIND       PRES   REMARKS
GARY*          CLOUDY    54  52  94 NW17G29   29.62R
MICHIGAN CITY* NOT AVBL
RENSSELAER*    NOT AVBL
VALPARAISO     CLOUDY    53  51  93 NW13      29.59R
$$

LMZ740>746-251600-
SOUTHERN LAKE MICHIGAN

STATION/POSITION TIME  SKY/WX   TEMP WIND        PRES    VSBY
                                AIR  DIR/SP/G
                 (UTC)          (F)  (DEG/KT/KT) (MB)    (MI)
HARRISON CRIB    1440            52  340/ 19/ 21   N/A
BURNHAM HARBOR   1500            55  340/  7/ 15   N/A
CALUMET HARBOR   1442            53  330/  9/ 13 1002.6R
BURNS HARBOR     1440            49  330/ 17/ 21 1002.7R
MICHIGAN CITY    1440            48  320/ 20/ 22   N/A
$$

ABBREVIATIONS USED IN REMARKS
   TC - TEMPERATURE IN CELSIUS
  WCI - WIND CHILL INDEX
   HX - HEAT INDEX
  VSB - VISIBILITY
$$



USA.gov is the U.S. government's official web portal to all federal, state and local government web resources and services.